GFSNIL_sfc_rhum_057.txt.gz
RH
72 71 74 81 82 80 80 81 80 82 81 82 82 85 85 94 97 98 99 98 96 95
80 80 83 84 83 80 76 69 76 78 80 79 82 85 84 87 93 95 96 98 98 98
79 81 83 82 77 72 70 70 73 76 77 78 81 83 85 88 85 86 90 89 85 87
75 74 75 74 74 71 70 72 74 76 77 78 79 80 83 85 85 86 85 84 83 85
77 77 76 75 75 73 74 76 76 75 76 77 79 78 79 81 80 80 81 80 82 84
80 80 81 80 77 77 79 80 79 77 78 80 82 82 82 84 84 85 83 81 79 81
83 84 85 84 83 82 80 81 80 78 79 84 88 86 87 87 89 88 90 91 88 82
85 86 83 83 84 82 81 78 76 78 80 81 82 81 86 87 87 87 88 86 84 85
82 81 82 83 84 84 84 82 82 80 81 83 80 80 86 84 84 86 91 91 89 80
82 85 88 87 87 89 91 90 90 86 83 86 84 85 86 86 80 86 93 96 97 86
86 91 91 91 92 93 92 92 90 89 86 84 79 82 81 83 93 94 91 86 86 88
88 94 93 93 95 93 96 93 92 86 85 90 89 69 71 82 84 81 72 69 68 66
90 94 96 95 99 93 92 100 88 94 93 82 87 62 62 64 49 50 49 55 56 65
93 95 96 97 93 97 95 94 94 93 88 81 73 68 66 63 51 51 53 55 57 61

GFSNIL_sfc_rhum_060.txt.gz
RH
51 48 49 55 54 54 56 59 62 65 64 64 65 66 69 73 81 90 95 97 95 95
52 55 56 63 63 61 59 55 57 61 63 64 66 68 72 73 79 87 92 95 96 97
56 61 63 64 64 61 56 57 59 61 62 64 66 68 74 80 79 78 82 81 86 88
56 59 61 60 59 57 56 57 59 62 62 63 64 65 70 79 78 79 79 78 78 77
57 59 59 58 58 56 56 58 60 60 61 61 64 62 63 67 67 68 69 68 72 72
58 60 59 60 59 59 60 61 61 60 61 63 66 65 65 65 67 67 68 67 67 69
60 61 61 62 62 63 62 63 63 65 66 71 73 76 79 78 78 79 80 79 75 70
64 66 69 71 69 66 66 66 68 72 75 75 77 78 84 82 81 81 81 80 77 83
67 68 72 73 75 76 76 75 75 77 73 74 75 86 85 79 79 77 76 79 78 71
67 73 78 81 82 84 87 85 83 82 78 80 80 82 84 80 79 93 98 99 96 77
73 79 84 88 89 92 91 90 88 87 83 81 78 81 77 78 94 97 96 95 96 92
76 86 91 93 94 93 95 92 91 85 83 94 84 72 69 80 89 83 75 68 58 53
78 87 93 94 100 93 92 100 85 100 100 79 88 67 66 57 41 45 38 42 49 64
83 90 94 97 93 98 97 97 97 97 94 84 68 55 60 55 38 36 39 40 42 48

GFSNIL_sfc_rhum_063.txt.gz
RH
44 45 44 48 48 49 50 51 58 61 60 60 60 62 65 72 75 80 87 90 88 92
44 48 48 52 54 55 56 55 55 57 60 60 61 62 65 72 73 85 88 95 95 97
50 53 55 55 56 56 54 55 56 58 58 60 61 64 68 75 78 80 83 86 89 90
51 53 54 55 56 56 55 55 56 58 59 59 60 61 67 75 76 78 80 80 82 79
51 53 54 54 56 54 55 55 56 57 58 58 60 61 62 66 67 69 71 70 74 72
52 54 53 53 55 56 57 58 58 58 59 60 64 63 63 62 64 66 66 66 68 68
54 54 54 55 58 58 58 60 60 61 62 65 66 71 74 72 73 75 77 76 72 71
57 59 61 62 62 62 63 62 64 68 71 71 72 73 81 80 80 80 80 77 78 84
60 63 67 68 69 71 71 71 72 74 72 74 71 85 82 78 81 77 78 79 78 75
60 64 69 70 74 78 82 83 83 81 76 77 75 83 81 77 84 94 100 100 99 77
64 68 73 79 85 89 92 92 92 90 83 83 79 79 79 84 99 100 100 99 100 98
67 72 79 87 93 94 96 96 97 92 89 98 87 75 68 80 93 90 85 79 63 58
69 75 87 93 100 95 96 100 96 100 100 82 94 66 63 65 55 62 49 51 58 62
72 79 90 98 96 98 98 98 100 99 97 90 77 62 62 55 44 42 43 46 49 54

GFSNIL_sfc_rhum_066.txt.gz
RH
56 62 60 60 63 68 71 78 76 77 75 74 74 76 78 85 90 91 95 97 98 98
56 59 62 66 73 77 77 64 69 72 74 75 76 77 79 87 90 94 96 96 96 97
60 64 66 69 74 74 74 70 72 74 74 74 75 78 82 90 89 86 90 90 93 94
69 69 68 68 74 73 70 70 70 71 73 73 75 76 82 80 81 85 86 86 87 86
67 69 71 71 70 68 71 68 70 70 71 71 74 77 80 84 82 76 81 81 82 80
70 69 68 69 70 68 70 73 71 71 72 74 79 82 84 82 83 85 85 83 84 87
72 69 70 69 69 69 69 73 74 76 77 78 81 85 87 86 90 90 88 89 91 90
74 75 74 75 76 73 74 76 77 80 79 76 76 75 85 84 87 88 88 86 86 90
74 78 83 84 84 85 84 83 82 79 77 79 71 83 83 83 87 85 85 88 91 87
76 81 85 77 76 90 90 87 86 85 82 83 87 84 82 82 92 98 100 100 94 82
79 84 84 82 86 94 94 94 93 92 88 89 84 82 81 92 100 100 99 99 99 99
83 87 89 89 95 97 98 97 98 95 95 99 93 78 77 87 94 94 93 90 84 80
85 88 89 89 99 97 97 100 99 100 100 88 94 73 66 76 88 86 78 69 72 60
87 87 93 99 99 100 100 100 100 100 99 96 87 79 63 58 50 51 51 57 59 69

GFSNIL_sfc_rhum_069.txt.gz
RH
61 64 69 68 67 68 69 82 80 79 77 79 78 79 82 89 92 94 96 96 98 98
62 63 68 66 68 77 78 69 73 76 75 79 79 80 84 90 93 94 97 96 96 97
62 63 69 76 76 74 71 69 74 76 77 80 80 83 86 92 92 92 96 95 95 96
73 75 75 78 75 76 71 70 72 75 77 78 79 81 86 91 88 90 92 91 92 89
75 75 78 78 73 70 74 71 71 72 74 75 78 83 84 89 87 90 89 87 87 83
77 77 75 78 71 70 75 77 74 72 73 77 81 85 87 88 89 88 87 82 83 84
83 81 82 80 76 77 77 79 80 78 80 81 83 86 89 91 93 93 94 93 93 93
82 82 83 83 82 82 81 83 85 86 85 84 82 80 90 86 88 88 90 89 88 90
81 84 87 89 90 89 90 90 89 89 81 81 72 79 81 85 90 87 87 91 89 86
83 87 91 91 92 92 92 91 91 90 83 85 88 84 84 84 92 97 99 96 91 84
85 90 92 91 92 89 95 95 95 93 89 89 87 85 85 91 100 100 100 99 94 94
86 91 92 93 94 94 98 98 98 95 95 97 97 82 85 95 98 97 97 96 92 90
88 90 93 94 97 97 98 100 99 100 100 92 97 79 74 81 85 84 82 84 77 68
91 93 93 95 99 99 100 100 100 100 99 97 89 87 67 69 73 69 64 65 70 72

GFSNIL_sfc_rhum_072.txt.gz
RH
95 92 87 85 85 83 80 81 83 82 82 83 81 80 82 88 92 94 96 96 97 98
75 80 86 85 79 81 84 77 78 79 76 81 80 82 85 90 92 95 97 98 97 97
71 69 67 65 68 73 73 71 76 80 82 80 80 82 85 92 94 95 97 98 97 97
76 73 76 79 80 78 76 77 78 80 80 80 79 81 87 89 94 93 94 94 94 96
81 79 85 82 79 75 74 74 73 78 77 78 78 83 82 87 91 91 94 93 93 93
88 88 89 88 83 80 78 76 75 74 77 80 83 85 87 88 89 89 89 88 84 84
88 88 89 88 83 82 83 84 83 82 83 82 86 89 90 92 93 93 93 93 92 91
88 88 88 88 87 86 88 88 88 90 90 89 87 84 90 92 93 90 91 89 88 91
86 87 90 90 90 90 91 92 92 92 91 91 78 77 80 83 92 89 90 93 90 89
86 89 92 92 93 93 93 92 92 92 91 91 85 81 82 84 92 95 98 99 95 87
88 91 92 94 94 94 95 95 95 95 93 93 89 85 84 89 100 100 100 98 93 94
89 92 94 95 95 95 96 97 97 96 95 96 96 86 85 95 100 100 99 92 86 82
90 90 93 94 96 95 96 100 99 100 100 92 99 86 83 93 94 93 89 92 86 79
92 92 93 95 97 97 99 100 100 100 100 99 93 89 77 77 82 73 79 78 78 75

GFSNIL_sfc_rhum_075.txt.gz
RH
98 99 96 94 96 95 92 91 88 84 81 83 83 83 85 87 92 92 96 95 97 98
94 97 94 94 94 90 89 88 86 80 78 79 80 82 84 89 90 93 95 97 98 99
77 82 91 89 87 82 81 80 80 78 78 79 80 83 87 91 92 95 96 98 98 97
83 84 83 78 77 79 78 80 76 77 78 80 82 84 88 90 91 96 95 95 96 95
85 85 86 83 79 81 76 78 78 78 82 82 83 86 87 88 91 95 94 94 95 95
90 90 90 89 84 77 77 78 82 81 82 83 84 87 89 90 91 91 91 91 93 90
90 90 91 91 89 88 87 87 88 86 86 88 89 89 90 92 93 93 92 92 92 88
90 90 91 90 90 90 90 89 89 90 90 90 88 86 91 92 94 94 90 89 87 89
91 90 91 91 91 91 91 92 92 92 92 93 85 79 80 83 89 91 91 93 92 92
90 91 92 92 93 93 93 93 93 93 93 93 92 78 80 81 94 97 98 99 98 90
91 91 93 94 94 94 95 95 95 95 94 94 92 81 83 83 98 100 100 100 98 96
91 92 94 95 95 95 96 97 96 95 95 96 94 83 84 96 100 100 99 91 83 76
91 91 93 94 96 96 96 99 99 100 100 94 98 87 85 93 97 99 95 88 82 73
92 92 92 95 97 97 97 99 100 100 100 99 95 91 85 86 96 96 84 84 87 85

GFSNIL_sfc_rhum_078.txt.gz
RH
98 99 98 96 98 97 94 96 97 97 91 85 83 84 83 86 90 90 94 92 95 97
93 97 98 96 97 98 97 94 93 86 82 82 82 83 82 87 88 90 93 95 97 98
76 84 95 95 95 95 92 92 90 87 84 82 81 82 85 90 91 93 96 97 98 98
80 83 89 91 90 86 86 89 83 80 81 81 81 81 84 87 88 92 95 94 96 96
86 88 89 90 88 83 83 84 82 80 81 82 80 85 87 88 90 93 95 94 95 96
88 90 90 90 90 86 86 87 84 84 84 87 86 90 91 91 92 92 92 92 93 94
90 90 91 91 90 89 88 89 89 88 89 90 90 91 91 92 93 93 93 92 92 90
90 90 91 92 91 91 91 90 90 91 91 92 89 87 91 91 93 94 92 88 86 88
91 91 92 92 92 92 92 93 92 92 92 93 87 80 82 87 93 93 92 94 93 94
92 93 93 93 94 94 94 94 94 94 94 94 92 80 78 81 95 96 97 98 99 93
92 93 93 94 94 94 95 95 96 95 94 94 92 82 81 77 99 100 100 100 100 99
92 93 94 95 96 95 96 96 96 95 96 96 94 84 80 97 100 100 99 95 90 85
93 92 93 94 96 96 95 97 98 100 100 93 96 86 81 96 98 99 99 94 84 84
94 94 91 95 96 97 96 99 100 100 100 100 96 95 84 88 95 95 97 92 88 81

GFSNIL_sfc_rhum_084.txt.gz
RH
87 87 84 82 85 87 87 88 86 94 95 89 85 86 86 89 90 89 89 84 81 76
67 79 86 85 83 86 82 86 88 93 92 92 87 89 86 85 87 86 86 80 78 76
55 57 66 76 81 79 77 80 80 86 86 87 83 78 75 76 75 74 72 74 72 72
57 58 59 63 69 76 78 79 81 82 80 74 70 66 66 67 70 68 68 73 70 70
57 59 59 60 66 66 69 73 75 75 72 67 63 61 64 68 67 65 69 69 74 70
54 58 58 61 61 64 68 71 71 69 67 65 65 61 59 62 65 66 64 67 69 68
54 59 60 61 62 62 63 66 67 65 66 65 62 61 61 61 63 64 64 68 67 66
56 58 61 63 63 63 63 63 62 63 63 66 66 64 65 66 64 65 66 69 65 68
57 59 64 65 64 65 66 64 63 64 63 65 63 79 80 70 64 62 61 65 67 68
61 65 66 66 68 70 70 69 68 66 63 67 62 84 83 80 67 71 73 80 82 81
67 68 70 71 72 72 74 75 75 73 69 68 67 85 85 87 79 90 100 100 100 91
70 72 72 76 76 74 78 79 80 75 75 78 76 87 87 88 97 99 98 95 83 75
70 73 77 80 82 80 78 88 84 91 90 82 81 86 87 85 82 94 87 72 72 86
69 73 74 80 83 87 84 86 90 95 97 83 78 72 86 86 78 81 86 80 75 72

GFSNIL_sfc_rhum_087.txt.gz
RH
91 93 85 86 88 85 82 81 79 90 92 94 97 97 97 97 95 93 96 94 90 86
85 84 83 88 82 83 80 82 81 84 88 92 96 98 97 96 93 91 92 90 88 87
56 58 69 81 84 83 82 83 92 91 90 95 96 95 93 95 90 89 87 82 81 80
58 56 56 59 62 72 74 75 83 87 95 95 94 90 88 85 81 77 76 77 76 78
55 57 58 56 60 63 69 74 77 80 87 86 86 81 79 77 71 69 72 72 78 75
52 56 55 58 58 59 66 72 74 77 80 78 75 69 65 66 68 67 69 70 75 74
52 52 57 58 60 61 61 68 72 73 72 72 68 68 68 67 68 71 70 74 73 72
54 53 54 60 63 61 63 63 65 68 68 70 70 68 71 70 70 72 72 72 70 74
54 56 60 59 62 65 66 64 66 67 66 69 64 76 77 72 70 68 69 72 73 75
58 62 62 62 62 65 68 69 70 68 67 68 67 82 83 79 69 75 78 84 84 80
63 66 66 67 69 69 72 72 75 76 71 71 68 85 86 84 80 87 99 98 98 92
62 66 70 74 78 76 76 80 81 78 77 78 78 89 89 89 99 99 98 95 90 83
63 65 73 76 79 81 82 81 86 90 90 82 84 89 91 89 85 95 90 87 82 82
62 68 70 74 78 87 91 90 88 92 94 88 82 78 88 90 78 87 91 80 79 76

GFSNIL_sfc_rhum_090.txt.gz
RH
97 96 97 96 96 97 93 91 88 96 97 97 97 98 99 99 98 98 98 98 98 97
96 95 95 93 88 88 92 90 90 94 96 96 96 96 98 98 98 98 98 97 96 97
71 78 83 94 95 93 91 93 91 96 93 95 93 94 98 98 98 98 98 98 96 92
69 68 69 70 76 84 90 88 96 96 98 97 94 97 98 98 98 97 97 94 91 90
67 68 71 72 72 73 80 85 90 89 97 98 98 98 98 96 94 94 92 91 91 89
64 65 71 74 74 72 76 83 89 89 91 94 96 96 95 92 89 89 87 86 88 88
69 69 69 71 75 76 75 80 87 89 86 85 81 81 85 82 83 82 85 87 88 87
69 69 72 74 74 78 78 79 81 86 82 76 77 75 80 80 82 84 86 87 85 87
71 73 76 77 79 79 84 83 82 84 86 86 74 79 80 80 80 78 79 84 84 87
73 79 82 80 82 86 88 89 88 88 86 87 84 79 83 83 80 84 86 89 88 88
75 78 82 87 90 92 92 92 92 91 89 88 84 83 84 84 88 91 92 92 93 92
78 80 82 79 77 79 85 89 88 92 92 91 90 86 88 89 96 100 100 99 95 95
74 80 83 79 82 82 83 89 91 93 96 92 92 90 91 92 99 99 98 96 90 92
68 73 81 86 84 83 86 90 97 96 95 95 92 90 91 92 94 96 97 97 97 93

GFSNIL_sfc_rhum_093.txt.gz
RH
99 99 99 98 97 97 97 95 92 97 97 98 98 98 99 99 99 99 99 99 98 97
94 99 99 98 96 96 97 96 96 96 96 95 96 98 98 99 99 99 99 98 98 97
82 88 91 95 99 95 90 94 93 96 95 96 96 98 98 98 98 99 99 99 99 98
72 72 72 75 80 88 94 94 96 99 98 97 96 97 97 97 97 98 98 99 98 98
64 66 73 76 76 75 78 81 92 93 95 98 98 97 98 98 98 98 98 98 99 98
69 70 72 72 76 78 79 80 85 92 93 95 98 99 99 98 98 98 97 96 96 95
74 74 75 75 76 78 82 82 84 88 92 92 92 95 97 98 98 98 97 95 95 94
78 78 78 79 78 79 82 85 84 85 89 88 88 88 87 87 90 92 91 94 93 91
76 78 83 83 83 86 89 90 92 89 88 91 85 80 85 86 88 87 87 91 90 92
78 81 82 85 87 89 93 93 94 93 92 91 91 84 82 84 85 88 91 93 92 93
79 82 84 88 89 88 79 83 90 93 92 91 89 85 83 85 92 92 94 94 96 92
78 81 85 87 91 90 88 86 89 88 90 93 92 88 87 87 94 99 98 94 90 87
74 77 85 85 89 91 90 86 84 90 94 92 95 91 90 90 96 99 98 97 97 89
68 71 77 85 85 91 90 92 91 77 85 92 92 90 90 92 91 94 98 98 98 94

GFSNIL_sfc_rhum_096.txt.gz
RH
95 99 99 99 98 99 99 99 99 99 99 99 98 97 98 98 98 99 99 98 98 97
92 96 99 99 98 98 99 99 98 99 98 97 96 97 98 99 99 99 98 98 98 97
93 92 92 93 97 98 98 98 98 98 97 97 97 96 98 99 98 99 99 99 99 98
81 84 85 83 82 83 86 90 96 98 99 99 98 97 98 98 97 98 98 99 98 98
67 67 70 71 75 78 78 78 85 91 95 97 99 99 98 97 96 98 98 97 98 98
74 74 76 77 76 76 82 83 82 85 92 95 96 98 99 98 98 97 96 95 98 96
82 80 80 79 79 79 82 86 88 86 88 92 93 95 96 98 99 99 98 98 97 96
81 81 82 83 84 86 88 89 89 91 91 90 90 88 92 90 96 99 99 99 98 98
75 76 80 84 89 91 92 92 92 92 92 94 87 86 86 87 89 90 94 96 97 97
76 78 82 83 86 88 92 92 93 94 94 94 94 88 88 86 94 93 94 95 96 97
76 78 80 86 86 90 93 93 92 92 92 91 87 88 90 89 93 96 95 96 96 95
73 76 76 77 85 87 91 91 93 91 94 94 90 89 91 93 97 98 95 94 95 91
72 74 76 79 82 88 89 85 87 92 90 82 87 87 89 93 98 99 98 98 96 90
72 74 75 80 86 85 88 87 92 87 87 84 75 76 83 87 94 98 97 98 98 94

GFSNIL_sfc_rhum_099.txt.gz
RH
94 97 99 99 99 96 97 97 97 95 96 97 97 98 99 99 99 99 99 99 99 97
94 94 96 94 96 98 98 98 99 99 99 99 99 98 99 99 98 98 96 96 98 98
92 91 91 92 92 90 91 93 98 99 99 99 99 99 99 99 97 98 97 97 98 98
80 83 83 83 86 88 86 86 90 95 97 98 99 99 99 98 98 98 98 98 98 98
70 70 74 73 74 74 77 79 79 80 86 91 93 97 99 98 98 98 98 97 98 98
76 76 77 78 78 78 81 83 83 84 85 87 90 92 93 96 99 98 96 95 97 95
79 79 79 80 80 83 84 86 88 89 88 88 89 89 90 92 95 98 98 99 97 96
78 78 80 80 83 83 84 87 89 90 92 92 88 86 91 91 90 90 92 97 99 99
74 76 79 82 85 85 86 85 87 87 91 94 84 87 89 90 94 93 91 92 94 97
73 76 78 82 85 84 89 92 92 92 91 91 93 85 85 90 92 96 94 94 96 96
72 73 74 76 78 84 89 90 93 93 94 95 84 78 83 87 96 97 97 96 96 97
74 75 75 74 79 83 90 89 88 90 94 94 91 77 69 82 97 99 97 95 91 92
75 76 78 79 81 84 84 83 85 89 90 83 88 81 72 72 87 92 93 93 95 91
74 77 78 82 84 86 88 89 90 88 89 90 87 87 72 72 77 90 94 97 95 94

GFSNIL_sfc_rhum_102.txt.gz
RH
94 95 95 96 98 98 97 97 94 94 94 94 95 98 98 99 98 99 99 98 97 94
93 93 95 94 93 93 91 89 93 97 98 99 98 97 97 97 98 99 99 99 99 98
87 89 89 88 90 90 90 90 90 91 93 96 97 99 99 99 97 98 97 97 98 97
78 80 83 80 80 80 80 83 86 88 91 91 94 95 97 99 99 99 98 97 97 96
68 68 73 79 76 74 79 76 79 80 81 81 83 85 90 94 95 99 98 98 98 97
67 69 73 75 76 76 77 77 80 81 84 83 84 86 84 85 89 92 96 98 98 95
73 73 73 72 73 74 77 80 81 79 84 84 84 86 87 88 89 88 87 91 95 97
70 71 70 71 78 75 77 78 81 85 86 84 82 80 92 92 93 92 90 88 89 94
69 70 75 73 75 73 76 82 79 77 83 90 78 76 71 82 92 93 95 94 91 91
73 74 75 76 77 78 84 90 88 86 87 92 92 71 70 68 80 92 95 97 96 94
72 74 74 75 74 78 83 88 88 88 91 93 76 72 70 73 79 86 91 98 96 96
74 77 78 78 80 80 86 87 87 86 91 91 89 73 71 72 86 85 76 70 94 96
75 78 80 82 84 85 89 86 88 87 90 86 88 78 73 69 76 88 85 80 71 79
70 72 75 78 80 82 77 79 87 89 91 90 89 92 76 67 73 84 83 77 83 83

GFSNIL_sfc_rhum_105.txt.gz
RH
88 92 92 92 93 94 94 94 89 91 94 96 94 92 92 94 93 94 96 94 92 90
86 87 87 88 88 92 90 88 89 89 88 91 91 93 97 98 98 97 97 97 96 94
81 84 88 87 84 83 83 82 84 84 88 89 90 89 92 95 98 99 98 97 98 98
71 73 79 83 82 76 77 77 77 78 80 81 82 86 88 88 91 93 96 98 99 95
56 56 62 66 64 64 63 58 59 59 62 66 71 78 83 81 84 89 92 96 96 98
54 52 54 55 54 54 56 56 58 60 62 62 68 75 79 81 82 80 82 88 90 93
56 54 52 53 53 53 57 56 56 58 60 66 66 65 73 72 78 79 81 79 83 84
57 55 58 57 56 55 60 60 58 58 59 65 64 62 66 66 71 76 82 80 78 79
60 58 60 59 60 58 58 64 63 62 64 66 57 69 66 65 67 67 77 85 87 82
58 60 63 61 58 58 62 66 65 64 65 68 67 66 65 65 66 73 71 78 83 83
58 58 59 60 59 59 61 63 66 67 67 71 64 69 67 66 71 77 78 80 76 74
60 61 61 61 65 64 68 68 70 67 70 74 73 75 71 68 73 74 73 69 65 67
62 62 63 64 68 66 68 68 71 70 71 75 73 75 73 66 64 68 67 64 63 69
59 61 63 66 67 72 72 71 74 70 70 70 70 69 76 72 65 66 68 61 58 56

GFSNIL_sfc_rhum_108.txt.gz
RH
77 80 83 84 88 90 90 89 84 84 87 88 88 89 90 93 91 89 96 95 94 90
78 83 84 80 81 85 82 75 78 79 83 84 84 85 83 91 93 96 96 94 94 94
71 72 77 79 78 75 73 72 75 76 74 77 76 81 84 87 87 90 92 93 97 96
59 62 56 53 66 69 62 60 58 61 63 65 71 77 81 83 83 86 87 87 92 92
51 43 43 44 44 41 42 42 39 37 38 38 44 49 64 70 71 77 80 83 88 91
37 37 39 40 36 34 37 36 34 34 35 39 40 42 44 45 49 56 60 67 75 78
45 46 43 40 37 36 36 37 35 35 35 38 40 41 46 46 48 48 56 63 66 68
41 39 38 39 39 36 35 35 37 36 34 36 36 35 54 50 46 48 48 46 51 64
33 33 36 37 37 35 38 37 36 36 38 43 35 55 62 59 49 45 46 47 49 51
33 34 36 34 32 34 36 37 38 37 37 38 38 54 63 64 50 51 53 58 57 53
36 36 38 39 40 40 41 43 44 45 43 44 43 58 66 67 55 55 57 56 53 51
40 42 43 45 47 46 49 50 51 49 50 52 52 60 67 67 58 56 53 48 45 47
44 45 47 49 52 54 52 54 55 55 54 56 57 60 66 64 51 50 46 44 43 52
46 46 46 50 54 56 54 55 57 52 49 46 47 50 66 69 57 51 50 46 46 45

GFSNIL_sfc_rhum_111.txt.gz
RH
91 92 91 83 81 81 84 85 79 81 81 81 80 85 88 93 92 91 96 93 89 90
80 78 75 69 72 78 77 66 73 75 74 72 78 82 85 91 90 90 92 93 94 94
53 56 59 58 63 65 66 63 63 62 63 64 67 74 80 83 83 86 90 90 87 86
49 55 51 48 47 50 53 53 53 50 52 51 55 58 64 66 68 73 77 82 86 84
43 41 37 35 35 32 33 31 32 33 33 36 37 46 52 57 53 58 62 66 73 78
37 38 37 38 38 36 33 32 29 29 30 32 33 34 37 40 42 45 48 53 61 65
34 36 38 38 36 31 28 29 30 30 30 30 30 29 40 41 42 43 44 47 50 51
34 32 31 31 32 31 32 30 31 30 30 32 34 28 50 50 46 43 42 45 41 48
28 29 31 30 29 30 32 32 32 34 34 36 29 46 53 57 55 47 47 51 53 52
28 31 32 32 32 34 35 37 39 39 40 41 39 47 55 61 56 54 54 60 61 55
33 34 36 38 39 39 39 41 43 46 45 47 44 52 56 63 64 60 59 61 57 54
38 40 41 43 45 45 48 50 52 49 51 54 53 55 58 64 65 62 55 46 43 44
41 43 44 46 50 52 50 54 54 54 55 52 52 50 54 60 55 54 47 44 42 51
44 43 43 48 51 56 55 55 57 51 47 42 42 44 53 60 59 58 58 53 50 45

GFSNIL_sfc_rhum_114.txt.gz
RH
92 94 90 91 92 94 94 90 81 76 76 78 81 83 88 92 90 90 94 94 95 93
75 79 80 77 79 79 75 62 65 66 67 69 74 76 84 88 86 89 93 94 92 91
56 56 59 60 62 63 65 64 60 58 59 59 63 67 77 77 77 77 85 85 86 87
49 51 47 46 47 50 49 47 47 48 52 52 54 61 66 66 64 66 68 72 76 76
46 42 40 41 41 37 35 35 35 37 39 37 41 46 52 54 56 60 66 67 71 70
42 48 47 45 39 33 33 34 35 37 37 38 39 37 44 47 51 53 52 56 60 63
44 42 42 40 40 40 40 38 39 39 38 40 38 38 51 54 56 54 52 56 60 58
41 40 42 43 41 38 39 38 39 39 41 42 39 32 52 58 62 62 55 55 54 59
39 41 46 46 45 46 48 47 48 50 51 54 39 50 51 55 65 64 61 63 66 65
41 46 50 49 50 54 55 56 59 59 60 60 58 54 55 58 69 74 74 73 74 68
48 50 53 55 58 60 61 63 66 69 67 68 58 57 57 59 77 79 78 76 73 72
52 55 58 62 65 66 71 72 73 67 70 74 72 59 56 59 81 81 76 60 57 58
54 56 58 61 65 68 68 69 70 66 70 66 65 59 51 54 70 76 69 64 59 59
58 56 56 59 62 67 69 69 72 70 65 57 54 56 53 56 60 68 68 71 67 61

GFSNIL_sfc_rhum_117.txt.gz
RH
82 88 88 88 84 85 87 86 85 89 89 88 85 84 86 86 88 90 94 92 90 90
60 67 79 75 71 74 73 57 71 66 65 66 67 72 76 82 80 85 90 91 89 87
52 52 54 50 52 55 52 52 53 53 53 53 58 64 69 79 77 78 83 80 78 82
48 50 47 44 44 48 49 45 44 45 47 48 46 59 59 59 58 66 70 75 76 73
51 45 43 40 36 34 34 34 34 35 40 41 46 56 61 64 62 64 66 61 70 69
48 49 47 46 45 43 44 43 42 40 42 46 47 54 60 64 64 67 64 61 64 67
48 46 47 46 46 45 46 47 47 48 50 52 49 50 60 63 69 70 67 64 66 65
43 44 47 48 49 50 52 51 53 54 55 56 48 42 58 62 66 66 64 65 65 66
41 45 50 52 54 57 58 59 60 62 63 64 47 54 56 59 72 74 73 74 71 70
44 48 53 53 56 59 63 66 70 71 71 70 69 58 59 60 75 81 84 83 80 72
52 55 59 61 64 65 64 65 68 72 72 74 63 60 58 58 76 83 84 84 79 75
56 60 63 66 69 69 73 75 74 71 72 72 70 64 58 56 78 83 83 73 66 66
60 62 65 68 70 71 74 73 78 75 76 69 70 60 55 56 65 74 71 65 65 66
63 62 62 66 68 75 76 74 77 72 71 66 64 68 59 60 63 68 70 72 72 68

GFSNIL_sfc_rhum_120.txt.gz
RH
80 88 85 84 86 86 81 82 74 80 78 75 78 80 88 93 94 94 95 90 88 89
60 64 70 65 65 74 66 48 56 58 64 63 70 75 80 85 85 84 85 89 91 88
55 57 57 51 50 52 53 55 54 50 50 50 55 61 67 71 71 77 84 84 84 84
56 56 54 48 47 47 49 50 51 51 51 50 54 58 59 59 63 63 64 71 76 77
55 51 50 49 47 46 46 45 45 46 47 47 51 62 67 68 72 75 75 76 77 79
48 48 50 50 50 49 51 51 51 51 53 54 54 60 66 71 74 75 75 74 76 75
47 47 48 48 50 54 56 58 59 59 60 61 55 54 64 70 77 78 73 72 75 74
45 46 50 52 55 58 58 59 62 64 66 66 55 53 70 72 79 81 80 80 74 72
44 48 54 58 60 61 64 66 67 69 70 70 54 60 60 66 78 79 82 84 83 79
47 52 58 60 62 64 69 72 74 74 74 73 71 59 59 59 76 81 85 86 86 77
54 56 61 64 67 68 72 75 75 76 76 77 66 62 59 56 73 79 82 84 83 80
58 60 64 65 70 70 77 79 78 78 79 81 77 62 57 64 80 82 84 77 75 74
62 64 66 68 71 72 77 74 78 74 78 65 75 67 60 64 74 80 77 76 76 69
64 64 65 69 72 76 76 74 80 75 78 75 72 78 65 65 72 79 81 84 79 78

GFSNIL_sfc_rhum_123.txt.gz
RH
75 88 88 87 88 87 78 81 67 70 78 84 86 79 82 88 91 89 94 95 96 96
65 66 71 66 65 71 70 50 61 62 60 63 73 78 75 80 84 85 88 92 94 94
61 62 61 55 54 56 57 57 60 60 61 58 62 60 64 68 68 72 82 81 82 83
58 58 52 50 52 54 55 56 57 58 60 59 67 70 70 66 69 69 70 73 77 78
54 50 50 50 50 52 53 54 55 56 58 56 61 70 75 76 76 78 77 78 82 79
50 49 50 52 52 54 57 58 60 61 64 63 60 66 72 77 79 78 78 80 81 81
50 48 50 53 56 59 62 63 65 66 67 67 63 63 72 74 80 81 80 80 80 79
49 48 51 55 60 63 64 66 69 70 71 71 62 56 75 77 82 82 83 82 80 77
50 49 54 60 63 65 68 71 72 73 76 75 57 64 60 68 80 80 83 84 84 81
50 52 57 61 64 67 72 76 76 76 77 77 76 63 58 58 77 81 87 86 86 77
55 57 62 64 65 70 74 78 78 79 80 82 70 63 58 65 81 85 85 86 86 86
60 62 64 64 67 72 77 79 79 79 83 83 78 67 61 69 83 81 83 80 82 83
64 64 67 67 72 72 78 73 76 74 78 74 79 71 64 67 80 84 83 83 86 70
66 67 68 71 74 75 78 75 81 77 81 80 78 84 67 66 77 80 83 83 81 79

GFSNIL_sfc_rhum_126.txt.gz
RH
72 82 80 76 77 80 78 79 71 72 72 75 79 80 83 87 83 84 92 93 93 92
65 66 71 66 64 70 69 49 65 66 69 71 74 71 74 78 82 79 85 88 90 92
63 62 57 53 54 58 59 61 64 65 65 66 73 75 76 76 74 72 78 76 82 86
59 57 50 50 53 56 58 60 62 64 66 66 73 77 80 76 78 77 77 79 78 73
57 50 49 50 51 56 58 59 61 63 64 64 65 74 80 82 81 82 84 85 84 80
54 50 49 51 54 58 61 63 65 67 69 68 66 71 78 82 82 81 85 86 86 85
57 51 50 52 57 62 64 66 68 70 71 71 69 67 79 79 84 84 83 84 83 83
57 50 52 56 60 63 66 67 71 72 72 73 65 58 79 81 83 84 84 83 81 78
58 52 56 59 63 65 67 72 73 74 76 77 59 64 61 66 83 82 86 89 87 82
57 55 59 61 64 64 68 77 76 77 79 79 78 65 60 69 82 84 89 87 88 82
59 58 63 66 65 68 72 77 78 79 82 84 72 63 62 65 81 84 84 84 87 90
61 62 65 66 67 70 74 78 78 76 83 83 81 66 63 69 85 83 84 81 85 85
63 62 67 66 70 72 77 69 74 70 79 76 82 69 67 68 82 86 83 84 84 76
64 64 67 70 74 76 76 73 79 74 80 83 81 84 71 66 79 82 82 80 81 79